When you browse on this site, cookies collect data to enhance your experience and personalize the content and advertising you see.
Visit our Privacy Policy to learn more. By continuing to use the site, you agree to this use of cookies and data.

Hourly Weather Luchek

Today, 3 July, Friday

Time Temperature Precipitation Wind Pressure Humidity
00:00 +13°C° 0 mm 1 mps 636 mmHg 87%
01:00 +13°C° 0 mm 1 mps 636 mmHg 87%
02:00 +13°C° 0 mm 1 mps 636 mmHg 87%
03:00 +13°C° 0 mm 1 mps 635 mmHg 88%
04:00 +14°C° 0 mm 1 mps 636 mmHg 86%
05:00 +15°C° 0 mm 1 mps 637 mmHg 85%
06:00 +18°C° 0 mm 1 mps 637 mmHg 83%
07:00 +19°C° 0 mm 1 mps 638 mmHg 77%
08:00 +19°C° 0 mm 2 mps 638 mmHg 71%
09:00 +21°C° 0 mm 2 mps 639 mmHg 64%
10:00 +21°C° 0.1 mm 2 mps 639 mmHg 64%
11:00 +23°C° 0.1 mm 2 mps 639 mmHg 63%
12:00 +22°C° 0.1 mm 3 mps 639 mmHg 63%
13:00 +23°C° 0.6 mm 2 mps 639 mmHg 65%
14:00 +23°C° 0.6 mm 2 mps 638 mmHg 66%
15:00 +23°C° 0.6 mm 2 mps 638 mmHg 68%
16:00 +21°C° 0.4 mm 2 mps 638 mmHg 70%
17:00 +21°C° 0.4 mm 2 mps 637 mmHg 71%
18:00 +21°C° 0.4 mm 1 mps 637 mmHg 73%
19:00 +20°C° 0 mm 1 mps 637 mmHg 76%
20:00 +18°C° 0 mm 1 mps 637 mmHg 80%
21:00 +16°C° 0 mm 1 mps 637 mmHg 83%
22:00 +15°C° 0 mm 1 mps 636 mmHg 84%
23:00 +15°C° 0 mm 1 mps 636 mmHg 85%

Tomorrow, 4 July, Saturday

Time Temperature Precipitation Wind Pressure Humidity
00:00 +14°C° 0 mm 1 mps 636 mmHg 86%
01:00 +14°C° 0 mm 1 mps 636 mmHg 86%
02:00 +14°C° 0 mm 1 mps 636 mmHg 86%
03:00 +13°C° 0 mm 1 mps 636 mmHg 86%
04:00 +15°C° 0 mm 1 mps 636 mmHg 83%
05:00 +16°C° 0 mm 1 mps 637 mmHg 81%
06:00 +18°C° 0 mm 1 mps 638 mmHg 79%
07:00 +20°C° 0 mm 1 mps 638 mmHg 73%
08:00 +21°C° 0 mm 1 mps 638 mmHg 67%
09:00 +23°C° 0 mm 2 mps 638 mmHg 61%
10:00 +23°C° 0.2 mm 2 mps 638 mmHg 62%
11:00 +24°C° 0.2 mm 2 mps 638 mmHg 62%
12:00 +24°C° 0.2 mm 3 mps 638 mmHg 63%
13:00 +24°C° 0.7 mm 3 mps 638 mmHg 63%
14:00 +24°C° 0.7 mm 2 mps 637 mmHg 63%
15:00 +24°C° 0.7 mm 2 mps 637 mmHg 63%
16:00 +23°C° 0.3 mm 2 mps 637 mmHg 63%
17:00 +23°C° 0.3 mm 2 mps 637 mmHg 63%
18:00 +23°C° 0.3 mm 2 mps 636 mmHg 63%
19:00 +21°C° 0 mm 1 mps 636 mmHg 67%
20:00 +18°C° 0 mm 1 mps 635 mmHg 70%
21:00 +15°C° 0 mm 1 mps 635 mmHg 74%
22:00 +15°C° 0 mm 1 mps 635 mmHg 74%
23:00 +15°C° 0 mm 1 mps 635 mmHg 74%

Day after tomorrow, 5 July, Sunday

Time Temperature Precipitation Wind Pressure Humidity
00:00 +15°C° 0 mm 1 mps 635 mmHg 74%
01:00 +15°C° 0 mm 1 mps 634 mmHg 74%
02:00 +14°C° 0 mm 1 mps 634 mmHg 74%
03:00 +13°C° 0 mm 0 mps 634 mmHg 75%
04:00 +14°C° 0 mm 0 mps 635 mmHg 72%
05:00 +16°C° 0 mm 0 mps 635 mmHg 69%
06:00 +17°C° 0 mm 0 mps 636 mmHg 66%
07:00 +20°C° 0 mm 1 mps 636 mmHg 63%
08:00 +22°C° 0 mm 1 mps 636 mmHg 60%
09:00 +23°C° 0 mm 2 mps 637 mmHg 56%
10:00 +23°C° 0.1 mm 2 mps 637 mmHg 56%
11:00 +24°C° 0.1 mm 2 mps 636 mmHg 55%
12:00 +24°C° 0.1 mm 3 mps 636 mmHg 54%
13:00 +24°C° 0.2 mm 2 mps 636 mmHg 55%
14:00 +24°C° 0.2 mm 2 mps 636 mmHg 55%
15:00 +23°C° 0.2 mm 2 mps 635 mmHg 56%
16:00 +23°C° 0 mm 2 mps 635 mmHg 56%
17:00 +23°C° 0 mm 2 mps 635 mmHg 57%
18:00 +23°C° 0 mm 2 mps 635 mmHg 57%
19:00 +21°C° 0 mm 1 mps 634 mmHg 60%
20:00 +19°C° 0 mm 1 mps 634 mmHg 64%
21:00 +15°C° 0 mm 1 mps 633 mmHg 67%
22:00 +15°C° 0 mm 1 mps 633 mmHg 67%
23:00 +15°C° 0 mm 1 mps 633 mmHg 68%

6 July, Monday

Time Temperature Precipitation Wind Pressure Humidity
00:00 +15°C° 0 mm 1 mps 633 mmHg 68%
01:00 +15°C° 0 mm 1 mps 633 mmHg 67%
02:00 +14°C° 0 mm 1 mps 633 mmHg 67%
03:00 +14°C° 0 mm 1 mps 633 mmHg 66%
04:00 +15°C° 0 mm 1 mps 633 mmHg 64%
05:00 +18°C° 0 mm 1 mps 634 mmHg 62%
06:00 +19°C° 0 mm 1 mps 635 mmHg 59%
07:00 +21°C° 0 mm 1 mps 635 mmHg 54%
08:00 +22°C° 0 mm 1 mps 636 mmHg 49%
09:00 +24°C° 0 mm 2 mps 636 mmHg 44%
10:00 +24°C° 0 mm 2 mps 636 mmHg 45%
11:00 +25°C° 0 mm 2 mps 636 mmHg 45%
12:00 +26°C° 0 mm 3 mps 636 mmHg 46%
13:00 +25°C° 0.2 mm 2 mps 636 mmHg 49%
14:00 +24°C° 0.2 mm 2 mps 635 mmHg 52%
15:00 +24°C° 0.2 mm 2 mps 635 mmHg 56%
16:00 +24°C° 0 mm 1 mps 634 mmHg 56%
17:00 +23°C° 0 mm 1 mps 634 mmHg 57%
18:00 +21°C° 0 mm 0 mps 634 mmHg 57%
19:00 +21°C° 0 mm 1 mps 634 mmHg 61%
20:00 +19°C° 0 mm 1 mps 634 mmHg 64%
21:00 +16°C° 0 mm 1 mps 633 mmHg 68%
22:00 +16°C° 0 mm 1 mps 633 mmHg 68%
23:00 +15°C° 0 mm 1 mps 633 mmHg 68%

7 July, Tuesday

Time Temperature Precipitation Wind Pressure Humidity
00:00 +15°C° 0 mm 1 mps 633 mmHg 67%
01:00 +15°C° 0 mm 1 mps 632 mmHg 67%
02:00 +15°C° 0 mm 1 mps 632 mmHg 67%
03:00 +15°C° 0 mm 1 mps 632 mmHg 68%
04:00 +16°C° 0 mm 1 mps 633 mmHg 66%
05:00 +18°C° 0 mm 1 mps 633 mmHg 64%
06:00 +20°C° 0 mm 1 mps 634 mmHg 62%
07:00 +21°C° 0 mm 1 mps 635 mmHg 56%
08:00 +23°C° 0 mm 2 mps 635 mmHg 50%
09:00 +24°C° 0 mm 2 mps 635 mmHg 45%
10:00 +25°C° 0 mm 2 mps 635 mmHg 43%
11:00 +26°C° 0 mm 2 mps 635 mmHg 42%
12:00 +26°C° 0 mm 3 mps 635 mmHg 41%
13:00 +26°C° 0 mm 3 mps 635 mmHg 41%
14:00 +26°C° 0 mm 2 mps 635 mmHg 41%
15:00 +27°C° 0 mm 2 mps 635 mmHg 41%
16:00 +26°C° 0 mm 2 mps 634 mmHg 44%
17:00 +25°C° 0 mm 2 mps 634 mmHg 47%
18:00 +25°C° 0 mm 2 mps 634 mmHg 51%
19:00 +23°C° 0 mm 1 mps 633 mmHg 52%
20:00 +21°C° 0 mm 1 mps 633 mmHg 54%
21:00 +19°C° 0 mm 1 mps 633 mmHg 56%
22:00 +18°C° 0 mm 1 mps 633 mmHg 57%
23:00 +18°C° 0 mm 1 mps 633 mmHg 58%

8 July, Wednesday

Time Temperature Precipitation Wind Pressure Humidity
00:00 +16°C° 0 mm 1 mps 632 mmHg 60%
01:00 +16°C° 0 mm 1 mps 632 mmHg 60%
02:00 +16°C° 0 mm 1 mps 632 mmHg 60%
03:00 +16°C° 0 mm 1 mps 632 mmHg 60%
04:00 +18°C° 0 mm 1 mps 633 mmHg 60%
05:00 +19°C° 0 mm 1 mps 633 mmHg 59%
06:00 +21°C° 0 mm 1 mps 634 mmHg 58%
07:00 +22°C° 0 mm 1 mps 634 mmHg 53%
08:00 +24°C° 0 mm 1 mps 635 mmHg 47%
09:00 +26°C° 0 mm 1 mps 635 mmHg 42%
10:00 +26°C° 0 mm 2 mps 635 mmHg 42%
11:00 +27°C° 0 mm 2 mps 635 mmHg 42%
12:00 +27°C° 0 mm 3 mps 635 mmHg 42%
13:00 +27°C° 0.2 mm 2 mps 635 mmHg 45%
14:00 +27°C° 0.2 mm 2 mps 634 mmHg 48%
15:00 +26°C° 0.2 mm 2 mps 634 mmHg 51%
16:00 +26°C° 0.1 mm 2 mps 633 mmHg 52%
17:00 +25°C° 0.1 mm 1 mps 633 mmHg 53%
18:00 +25°C° 0.1 mm 1 mps 633 mmHg 54%
19:00 +23°C° 0 mm 1 mps 632 mmHg 58%
20:00 +21°C° 0 mm 1 mps 632 mmHg 62%
21:00 +18°C° 0 mm 1 mps 632 mmHg 66%
22:00 +18°C° 0 mm 1 mps 632 mmHg 65%
23:00 +18°C° 0 mm 1 mps 632 mmHg 64%
Show more